Weather History for Mt. Clemens, MI

Change the Weather History Date:

Thursday, October 17, 2013

  Actual Average Record
Temperature  
Mean Temperature 52 °F -  
Max Temperature 55 °F 58 °F 81 °F (1963)
Min Temperature 49 °F 42 °F 28 °F (1978)
Degree Days  
Heating Degree Days 14    
Growing Degree Days 2 (Base 50)    
Moisture  
Dew Point 48 °F    
Average Humidity 89    
Maximum Humidity 100    
Minimum Humidity 77    
Precipitation  
Precipitation 0.12 in - - ()
Sea Level Pressure  
Sea Level Pressure 29.80 in    
Wind  
Wind Speed 8 mph (SW)    
Max Wind Speed 14 mph    
Max Gust Speed 23 mph    
Visibility 10 miles    
Events Rain    
Averages and records for this station are not official NWS values.
T = Trace of Precipitation, MM = Missing Value Source: NWS Daily Summary

Daily Weather History Graph

Daily Weather History Graph

Search for Another Location

Airport:

Trip Planner

Search our weather history database for the weather conditions in past years. The results will help you decide how hot, cold, wet, or windy it might be!

Date:

Astronomy

Oct. 17, 2013 Rise Set
Actual Time 7:47 AM EDT 6:45 PM EDT
Civil Twilight 7:18 AM EDT 7:13 PM EDT
Nautical Twilight 6:45 AM EDT 7:46 PM EDT
Astronomical Twilight 6:13 AM EDT 8:19 PM EDT
Moon 5:59 PM EDT (10/17) 6:16 AM EDT (10/17)
Length of Visible Light 11h 55m
Length of Day
10h 58m
Waxing Gibbous, 98% of the Moon is Illuminated
Oct 17
Waxing Gibbous
Oct 18
Full
Oct 26
Last Quarter
Nov 3
New
Nov 10
First Quarter

Hourly Weather History & Observations

Time (EDT) Temp. Dew Point Humidity Pressure Visibility Wind Dir Wind Speed Gust Speed Precip Events Conditions
12:28 AM 53.6 °F 46.4 °F 77% 29.88 in 10.0 mi WSW 10.4 mph - N/A   Overcast
12:38 AM 53.6 °F 46.4 °F 77% 29.88 in 10.0 mi WSW 9.2 mph - N/A   Overcast
12:58 AM 53.1 °F 46.8 °F 79% 29.89 in 10.0 mi WSW 8.1 mph - N/A   Overcast
1:58 AM 52.9 °F 46.9 °F 80% 29.90 in 10.0 mi West 8.1 mph - N/A   Overcast
2:58 AM 52.7 °F 46.8 °F 80% 29.88 in 10.0 mi West 8.1 mph - N/A   Overcast
3:58 AM 52.5 °F 46.9 °F 81% 29.87 in 10.0 mi West 5.8 mph - N/A   Overcast
4:58 AM 52.3 °F 47.3 °F 83% 29.88 in 10.0 mi WSW 6.9 mph - N/A   Overcast
5:58 AM 52.2 °F 47.3 °F 83% 29.88 in 10.0 mi SW 4.6 mph - N/A   Overcast
6:08 AM 51.8 °F 46.4 °F 82% 29.86 in 10.0 mi SW 4.6 mph - N/A   Overcast
6:58 AM 52.0 °F 47.1 °F 83% 29.88 in 10.0 mi SW 4.6 mph - N/A   Overcast
7:58 AM 52.2 °F 46.9 °F 82% 29.88 in 10.0 mi SW 5.8 mph - N/A   Overcast
8:58 AM 52.5 °F 47.3 °F 82% 29.89 in 10.0 mi SW 2.3 mph - N/A   Overcast
9:28 AM 53.6 °F 48.2 °F 82% 29.86 in 10.0 mi WSW 2.3 mph - N/A   Overcast
9:58 AM 53.2 °F 48.0 °F 82% 29.88 in 10.0 mi Variable 4.6 mph - N/A   Overcast
10:18 AM 53.6 °F 48.2 °F 82% 29.86 in 10.0 mi West 5.8 mph - N/A   Mostly Cloudy
10:58 AM 53.6 °F 48.2 °F 82% 29.86 in 10.0 mi SSW 3.5 mph - N/A   Mostly Cloudy
11:58 AM 54.5 °F 48.4 °F 80% 29.85 in 10.0 mi Variable 2.3 mph - N/A   Partly Cloudy
12:41 PM 53.6 °F 48.2 °F 82% 29.82 in 10.0 mi South 3.5 mph - N/A Rain Light Rain
12:58 PM 53.8 °F 49.5 °F 85% 29.83 in 10.0 mi SW 5.8 mph - 0.00 in Rain Light Rain
1:24 PM 53.6 °F 50.0 °F 88% 29.81 in 10.0 mi SSW 5.8 mph - N/A   Mostly Cloudy
1:48 PM 53.6 °F 50.0 °F 88% 29.78 in 10.0 mi SW 4.6 mph - N/A Rain Light Rain
1:58 PM 54.1 °F 50.2 °F 86% 29.80 in 10.0 mi SSW 5.8 mph - 0.01 in Rain Light Rain
2:28 PM 53.6 °F 50.0 °F 88% 29.78 in 9.0 mi SSW 5.8 mph - N/A Rain Light Rain
2:38 PM 53.6 °F 51.8 °F 94% 29.78 in 8.0 mi SW 8.1 mph - N/A Rain Light Rain
2:58 PM 52.9 °F 51.4 °F 95% 29.78 in 5.0 mi WSW 5.8 mph - 0.04 in Rain Light Rain
3:13 PM 51.8 °F 51.8 °F 100% 29.75 in 7.0 mi SW 8.1 mph - N/A Rain Light Rain
3:28 PM 51.8 °F 51.8 °F 100% 29.76 in 8.0 mi SW 8.1 mph - N/A Rain Light Rain
3:58 PM 52.5 °F 51.4 °F 96% 29.78 in 9.0 mi WSW 10.4 mph - 0.03 in Rain Light Rain
4:03 PM 51.8 °F 51.8 °F 100% 29.76 in 9.0 mi WSW 9.2 mph - N/A Rain Light Rain
4:13 PM 51.8 °F 50.0 °F 94% 29.76 in 9.0 mi WSW 11.5 mph - N/A Rain Light Rain
4:18 PM 51.8 °F 50.0 °F 94% 29.76 in 10.0 mi WSW 8.1 mph - N/A Rain Light Rain
4:58 PM 51.4 °F 50.0 °F 95% 29.76 in 10.0 mi WSW 8.1 mph - 0.03 in Rain Light Rain
5:08 PM 51.8 °F 50.0 °F 94% 29.74 in 10.0 mi SW 10.4 mph - N/A Rain Light Rain
5:10 PM 51.8 °F 50.0 °F 94% 29.74 in 10.0 mi SW 8.1 mph - N/A   Scattered Clouds
5:15 PM 51.8 °F 50.0 °F 94% 29.74 in 10.0 mi WSW 10.4 mph - N/A   Mostly Cloudy
5:19 PM 51.8 °F 50.0 °F 94% 29.74 in 10.0 mi WSW 12.7 mph - N/A Rain Light Rain
5:32 PM 51.8 °F 50.0 °F 94% 29.74 in 10.0 mi SW 6.9 mph - N/A   Mostly Cloudy
5:58 PM 51.1 °F 49.1 °F 93% 29.76 in 10.0 mi SW 10.4 mph - 0.01 in   Overcast
6:03 PM 51.8 °F 48.2 °F 88% 29.74 in 10.0 mi SW 13.8 mph - N/A   Overcast
6:08 PM 51.8 °F 48.2 °F 88% 29.74 in 10.0 mi WSW 11.5 mph - N/A   Mostly Cloudy
6:13 PM 50.0 °F 48.2 °F 94% 29.74 in 10.0 mi WSW 8.1 mph - N/A   Mostly Cloudy
6:58 PM 50.5 °F 48.6 °F 93% 29.76 in 10.0 mi SW 8.1 mph - N/A   Overcast
7:18 PM 50.0 °F 48.2 °F 94% 29.74 in 10.0 mi SSW 9.2 mph - N/A   Overcast
7:28 PM 50.0 °F 48.2 °F 94% 29.75 in 10.0 mi SW 8.1 mph - N/A   Overcast
7:58 PM 50.0 °F 48.4 °F 94% 29.77 in 10.0 mi SW 10.4 mph - N/A   Overcast
8:56 PM 50.0 °F 46.4 °F 87% 29.76 in 9.0 mi SW 9.2 mph - N/A Rain Light Rain
8:58 PM 50.0 °F 46.4 °F 87% 29.78 in 9.0 mi SW 10.4 mph - N/A Rain Light Rain
9:03 PM 50.0 °F 48.2 °F 94% 29.76 in 9.0 mi WSW 9.2 mph - N/A Rain Light Rain
9:05 PM 50.0 °F 48.2 °F 94% 29.76 in 10.0 mi SW 8.1 mph - N/A   Overcast
9:13 PM 50.0 °F 48.2 °F 94% 29.76 in 10.0 mi SW 8.1 mph - N/A   Light Drizzle
9:22 PM 50.0 °F 48.2 °F 94% 29.76 in 10.0 mi SW 8.1 mph - N/A   Overcast
9:37 PM 50.0 °F 48.2 °F 94% 29.77 in 10.0 mi WSW 8.1 mph - N/A   Overcast
9:42 PM 50.0 °F 48.2 °F 94% 29.76 in 10.0 mi WSW 9.2 mph - N/A   Overcast
9:47 PM 50.0 °F 48.2 °F 94% 29.76 in 10.0 mi SW 12.7 mph - N/A   Overcast
9:58 PM 50.0 °F 47.8 °F 92% 29.78 in 10.0 mi SW 12.7 mph - 0.00 in   Overcast
10:13 PM 50.0 °F 48.2 °F 94% 29.77 in 9.0 mi WSW 9.2 mph - N/A   Overcast
10:18 PM 50.0 °F 48.2 °F 94% 29.77 in 9.0 mi WSW 10.4 mph - N/A   Overcast
10:23 PM 50.0 °F 48.2 °F 94% 29.77 in 10.0 mi WSW 8.1 mph - N/A   Overcast
10:33 PM 50.0 °F 48.2 °F 94% 29.77 in 10.0 mi WSW 9.2 mph - N/A   Overcast
10:58 PM 49.5 °F 48.7 °F 97% 29.80 in 10.0 mi West 11.5 mph - N/A   Overcast
11:08 PM 50.0 °F 48.2 °F 94% 29.79 in 10.0 mi West 9.2 mph - N/A   Overcast
11:18 PM 50.0 °F 48.2 °F 94% 29.79 in 10.0 mi West 10.4 mph - N/A   Overcast
11:28 PM 50.0 °F 46.4 °F 87% 29.80 in 10.0 mi West 10.4 mph - N/A   Overcast
11:48 PM 50.0 °F 44.6 °F 82% 29.80 in 10.0 mi West 12.7 mph 23.0 mph N/A   Overcast
11:58 PM 49.1 °F 45.0 °F 86% 29.82 in 10.0 mi WNW 10.4 mph - N/A   Mostly Cloudy